Regional Weather Roundup
Issued by NWS

Home | Current Version | Previous Version | Graphics & Text | Print | Product List | Glossary On
Versions: 1 2 3 4 5 6 7 8 9 10 11 12 13 14 15 16 17 18 19 20 21 22 23 24 25 26 27 28 29 30 31 32 33 34 35 36 37 38 39 40 41 42 43 44 45 46 47 48 49 50
000
ASUS44 KMEG 271510
RWRTN
TENNESSEE HOURLY STATE WEATHER ROUNDUP
NATIONAL WEATHER SERVICE MEMPHIS TN
1000 AM CDT SAT AUG 27 2016

TNZ002-004-019-021-049-052-054-088>092-271600-
WEST TENNESSEE

CITY           SKY/WX    TMP DP  RH WIND       PRES   REMARKS
MEMPHIS INTL   MOSUNNY   83  73  72 CALM      30.10R
NWS MEMPHIS      N/A     80 N/A N/A MISG        N/A
JACKSON        SUNNY     79  74  84 VRB3      30.11R
DYERSBURG      MOSUNNY  N/A N/A N/A MISG        N/A
PARIS          SUNNY     81  73  78 CALM      30.12R
$$

TNZ008-025-027-028-033-062-065-066-271600-
NORTH MIDDLE TENNESSEE

CITY           SKY/WX    TMP DP  RH WIND       PRES   REMARKS
NASHVILLE      MOSUNNY   85  73  67 SE6       30.12R HX  91
CLARKSVILLE    SUNNY     80  73  79 S3        30.11R
SMYRNA         SUNNY     84  75  74 MISG      30.13R HX  92
COOKEVILLE     SUNNY     88  73  62 SW6       30.14S HX  96
CROSSVILLE     SUNNY     82  69  64 SE6       30.21R
$$

TNZ061-075-076-078-094-096-097-271600-
SOUTH MIDDLE TENNESSEE

CITY           SKY/WX    TMP DP  RH WIND       PRES   REMARKS
FAYETTEVILLE   MOSUNNY   81  73  78 CALM      30.14R
TULLAHOMA      MOSUNNY   82  70  65 SE3       30.16R
WINCHESTER     MOSUNNY   82  73  74 SE6       30.14R
MCMINNVILLE    MOSUNNY   88  75  66 CALM      30.15R HX  97
COLUMBIA       MOSUNNY   84  84 100 SE5       30.11R HX 104
SHELBYVILLE    SUNNY     88  75  66 S6        30.14R HX  97
$$

TNZ017-018-042-046-047-271600-
NORTHEAST TENNESSEE

CITY           SKY/WX    TMP DP  RH WIND       PRES   REMARKS
TRI CITIES     MOSUNNY   81  68  64 E3        30.19S
ELIZABETHTON   SUNNY     84  70  61 CALM      30.19S
$$

TNZ012-013-036-069-073-074-271600-
CENTRAL EAST TENNESSEE

CITY           SKY/WX    TMP DP  RH WIND       PRES   REMARKS
KNOXVILLE      MOSUNNY   87  70  56 VRB3      30.15R HX  92
OAK RIDGE      SUNNY     85  71  63 CALM      30.17R HX  90
GATLINBURG     SUNNY     84  70  61 CALM      30.15R
MORRISTOWN     SUNNY     86  72  62 VRB5      30.17R HX  92
$$

TNZ083-085-099-271600-
SOUTHEAST TENNESSEE

CITY           SKY/WX    TMP DP  RH WIND       PRES   REMARKS
CHATTANOOGA    MOSUNNY   83  72  69 CALM      30.15R
$$

SKY/WX REPORTED AS FAIR MEANS FEW OR NO CLOUDS BELOW
12 THOUSAND FEET.




USA.gov is the U.S. government's official web portal to all federal, state and local government web resources and services.